Lapse_Rate
0.6 0.8 1.7 3.1 5.6 5.6 5.7 5.5 6.5 6.1 6.1 6.4 7.5 7.2 6.7 6.8 7.3 5.5 5.1 6.2 6.2 5.9 6.3 6.7 6.6 6.3 6.2 7.2 7.2 6.3 5.8 6.2 6.5 5.7 5.7 5.3 6.0 6.0 5.5 4.9 4.6 4.8 5.5
0.3 0.3 -0.1 1.3 4.1 5.0 5.7 5.4 6.1 6.4 6.3 6.3 6.7 6.7 7.3 7.1 7.9 5.9 4.4 5.3 5.5 5.7 5.8 6.5 7.0 6.6 6.4 6.8 7.1 6.5 5.8 5.8 5.8 5.7 5.6 5.7 5.7 5.6 5.4 4.6 4.5 4.6 4.6
1.5 -0.1 -0.0 0.7 1.9 5.0 5.1 4.9 6.2 6.4 6.5 6.9 6.4 6.6 6.3 6.7 6.9 6.0 5.2 4.6 5.5 5.9 5.4 6.3 7.0 6.7 6.7 6.7 7.0 6.5 5.8 5.6 5.7 5.5 5.9 5.9 6.1 5.9 5.7 4.8 4.2 4.6 4.6
2.1 0.8 0.4 0.8 0.6 0.3 4.8 5.0 4.9 4.8 6.7 6.8 6.2 5.9 6.1 6.0 6.2 6.6 6.1 5.4 5.2 5.6 5.4 6.2 7.1 6.7 6.6 6.7 6.9 6.8 6.4 5.7 5.7 5.8 5.9 6.1 6.3 6.1 5.6 5.0 4.2 4.5 4.6
3.0 1.8 0.9 1.1 0.8 1.3 4.7 5.5 5.0 5.3 5.2 7.0 6.9 5.9 5.8 5.4 6.1 7.1 6.7 5.5 5.0 4.9 4.6 6.0 6.6 6.7 6.8 6.9 6.7 7.0 6.6 6.3 6.0 5.8 5.6 6.2 6.4 6.2 5.7 4.9 4.0 4.7 4.2
3.1 2.8 1.8 1.0 0.7 0.8 3.6 5.6 6.2 5.8 5.6 5.5 7.6 7.2 7.1 6.4 5.5 5.1 5.9 5.7 5.2 4.8 4.1 5.0 6.3 6.5 7.1 7.1 7.0 6.9 6.5 5.8 5.7 5.6 6.0 6.1 6.1 5.9 5.0 5.0 4.7 4.4 4.3
3.7 3.5 2.6 1.3 1.0 1.1 0.7 3.8 4.8 5.1 5.4 4.9 4.7 4.9 5.7 6.3 5.7 5.3 5.2 4.8 4.6 4.7 4.4 4.4 5.7 5.3 5.5 6.7 6.7 6.9 7.0 6.6 6.2 5.9 6.0 6.1 5.9 5.4 4.9 4.8 4.4 4.4 4.6
4.3 4.9 3.5 2.5 1.6 1.3 0.8 1.2 4.1 5.1 5.3 4.5 5.4 5.2 5.7 6.2 6.2 5.7 5.3 5.4 4.9 5.0 4.8 4.2 4.1 4.3 4.7 5.5 6.4 7.0 6.6 6.7 6.6 6.1 6.2 6.3 5.8 5.5 4.9 4.8 4.7 4.8 4.8
4.6 4.7 4.3 3.6 2.7 1.4 1.2 0.5 1.0 4.0 6.0 4.9 4.8 5.0 5.5 5.9 6.7 5.5 5.6 5.5 5.3 5.3 5.1 5.0 4.7 4.9 5.0 5.5 5.7 5.9 6.7 6.7 6.9 7.0 6.7 6.3 6.0 5.5 5.3 5.3 5.2 5.0 5.0
4.5 4.9 5.1 4.4 3.4 2.7 2.2 1.3 2.0 0.6 3.3 6.5 5.7 5.5 5.2 5.3 6.4 5.2 5.0 5.1 5.4 5.9 5.4 4.9 5.1 5.5 5.4 5.0 5.7 5.9 6.2 6.4 6.3 7.1 7.5 6.7 6.3 5.8 5.6 5.8 6.0 5.9 5.7
4.4 4.8 5.7 5.1 3.6 3.2 2.9 0.6 1.6 -0.7 0.2 3.4 6.5 6.0 5.1 5.1 5.9 4.4 5.4 5.8 5.1 5.5 6.0 5.8 5.2 5.6 6.3 6.1 5.7 5.3 6.4 6.1 6.4 7.0 7.4 7.3 6.8 6.3 6.4 6.6 6.5 6.5 6.2
4.5 4.8 5.9 5.5 4.6 4.3 3.1 2.6 1.3 0.9 0.2 0.7 4.5 6.2 6.7 6.5 6.0 5.4 3.9 5.6 6.4 5.6 5.6 5.7 5.4 5.4 6.3 6.2 6.4 6.0 6.5 6.2 6.1 6.7 7.1 7.5 7.2 7.0 7.0 7.4 7.2 6.9 6.8
5.9 4.8 5.5 5.6 5.2 4.5 4.8 3.7 2.4 1.5 2.5 0.7 1.3 5.4 6.0 6.5 4.2 5.7 4.6 4.9 5.1 4.8 4.7 5.5 6.0 5.6 6.5 6.1 6.4 6.2 6.4 6.4 6.2 6.4 7.0 7.3 7.1 7.4 7.2 7.7 7.8 7.8 7.3
7.2 6.4 7.1 7.0 5.7 5.8 5.5 5.0 3.9 2.8 2.7 4.2 1.6 1.2 5.6 5.6 4.6 4.4 4.8 4.3 5.0 4.9 4.4 4.7 3.9 4.7 5.3 5.7 5.3 6.0 4.7 6.1 5.8 5.7 6.6 7.3 6.9 6.8 6.8 7.1 7.3 7.4 7.6
7.6 7.4 7.5 6.8 5.8 6.4 6.4 6.2 5.2 3.0 2.4 3.8 2.3 2.0 2.9 5.8 5.5 4.8 5.0 4.7 4.9 5.5 6.4 4.0 4.1 3.7 4.3 5.1 4.9 4.7 4.1 4.4 4.9 5.3 5.8 6.4 6.7 6.5 6.5 6.7 6.7 6.8 7.0
8.7 7.6 7.0 7.9 6.9 6.4 6.7 7.0 6.6 5.4 4.1 3.2 4.0 2.9 2.2 5.2 6.0 6.3 6.4 6.3 5.7 5.4 6.1 2.8 2.3 1.9 2.6 3.4 3.9 4.2 3.4 4.2 4.4 4.7 5.3 5.5 5.8 6.2 6.3 6.6 6.7 6.5 6.8
9.0 9.0 8.1 8.7 8.0 7.3 7.3 8.1 8.2 6.8 5.1 3.4 4.0 4.4 3.2 2.2 6.6 6.4 6.3 7.0 6.7 6.1 5.6 3.2 2.2 1.2 1.9 2.4 2.0 3.3 3.4 2.7 3.1 4.3 4.1 4.1 4.8 5.3 5.6 5.9 6.8 6.8 6.9
9.2 9.3 9.0 8.6 8.3 8.2 8.1 8.8 8.2 8.3 6.6 4.3 3.4 3.9 4.7 3.7 3.6 6.1 5.5 6.4 6.3 6.1 6.1 4.7 2.9 1.3 1.8 2.4 2.1 1.4 1.8 2.5 2.8 2.9 3.4 3.5 4.6 4.4 4.8 5.1 5.6 5.9 6.1
8.2 8.6 9.3 8.7 8.1 8.5 8.5 8.6 8.4 8.1 8.1 6.3 3.3 3.6 4.0 5.5 3.5 6.3 5.5 6.2 6.0 6.2 5.9 4.8 2.6 1.8 0.2 1.6 1.5 1.3 1.1 1.3 2.2 3.0 3.2 3.4 3.6 4.2 4.4 4.4 4.8 5.2 5.3
7.8 8.0 8.6 9.0 8.5 8.3 8.4 8.8 8.4 7.8 8.2 8.0 7.4 4.3 3.5 5.3 4.4 2.4 6.0 5.9 5.4 5.9 6.0 6.7 4.2 3.2 2.4 0.3 2.3 2.2 2.2 2.0 2.2 2.1 3.1 3.2 3.1 3.2 3.4 3.4 3.3 3.3 4.1
8.1 8.0 8.1 8.3 8.6 8.6 8.7 8.6 8.5 8.0 7.8 7.8 7.6 6.3 3.9 4.4 4.4 3.7 4.3 6.0 6.0 5.9 6.0 6.5 4.5 3.1 2.0 1.2 2.5 2.0 2.0 1.8 1.3 0.0 0.7 0.8 0.8 1.2 1.5 1.9 2.2 2.6 2.8
7.8 7.8 7.7 7.7 7.3 7.4 8.4 8.8 8.3 7.8 7.8 7.9 7.6 6.8 6.3 5.3 4.3 3.7 3.7 3.9 6.0 5.6 5.8 6.1 6.0 5.6 3.7 3.1 3.1 2.7 2.5 1.8 2.4 -0.6 0.8 0.4 0.9 0.6 1.5 0.9 1.7 2.0 2.1
7.3 7.7 7.3 6.8 6.2 6.0 7.5 9.0 8.4 8.0 7.6 7.7 7.6 7.5 7.1 6.5 5.4 6.5 5.7 3.6 4.2 4.4 5.2 5.3 5.5 5.8 5.5 3.2 2.1 2.9 2.8 3.4 3.3 0.1 0.8 1.1 -0.1 0.3 0.9 1.9 2.4 3.1 2.9
7.3 7.5 7.4 7.0 6.4 6.0 7.7 8.9 8.6 7.8 7.3 7.1 7.0 7.6 7.0 6.9 6.1 6.3 8.1 6.9 5.3 5.1 5.0 5.6 6.0 6.7 6.7 4.2 2.1 2.7 2.3 2.5 1.2 0.7 1.9 1.2 -0.1 0.4 1.1 2.0 3.6 3.7 3.3
7.4 7.2 7.2 7.0 6.4 5.5 6.9 7.9 8.2 7.1 7.1 7.1 7.1 7.3 7.2 6.6 5.7 5.5 6.4 6.2 6.0 5.6 4.3 3.9 4.2 4.2 4.0 3.4 4.2 4.0 4.3 3.5 2.5 1.7 1.4 2.0 1.2 0.9 1.0 0.4 2.2 3.3 2.0
7.5 7.4 7.1 7.0 6.6 6.2 6.4 6.5 6.7 6.6 6.5 7.1 6.8 6.7 7.0 6.7 5.9 6.0 5.9 6.2 6.0 6.0 6.1 5.3 4.7 3.8 3.8 3.9 3.0 4.8 4.3 4.2 0.7 0.2 1.1 0.2 -0.2 -0.5 0.1 -1.8 -1.0 -0.3 0.1
Wind_Speed
9 16 13 17 11 12 12 9 10 10 10 14 12 15 13 14 14 13 17 18 14 12 16 23 23 21 20 20 20 23 23 21 20 19 19 17 19 17 14 12 10 10 9
17 13 10 10 10 6 10 11 10 10 9 7 7 10 11 12 12 14 15 15 13 11 11 24 23 22 23 22 20 24 25 22 21 20 19 18 20 17 14 12 10 10 9
19 18 10 11 14 10 11 6 6 6 8 7 7 7 6 10 9 15 15 15 13 9 13 22 24 25 25 24 22 24 25 25 23 22 19 18 18 18 16 14 11 10 9
20 19 10 10 20 19 5 6 6 4 7 10 5 5 5 5 8 10 14 14 16 9 9 20 26 25 27 25 24 26 24 24 22 20 19 17 17 17 15 14 12 10 9
21 18 13 14 21 9 9 9 10 11 9 10 8 6 5 5 6 6 9 13 14 12 10 24 30 27 27 26 25 24 22 21 21 19 19 18 17 16 14 13 12 10 10
23 20 16 16 18 11 10 11 16 15 12 6 10 9 8 6 5 5 8 12 13 12 11 17 22 23 27 25 24 25 24 23 21 20 19 19 18 15 16 14 13 12 11
23 19 13 13 14 11 13 13 10 14 7 6 4 2 3 7 7 5 6 7 7 11 11 12 16 16 20 25 23 24 24 24 22 20 19 19 16 18 18 15 14 13 11
22 18 14 11 13 12 14 13 6 8 4 5 4 4 4 1 3 5 5 8 10 11 9 12 15 16 14 14 16 19 21 24 23 22 21 19 18 19 19 18 16 14 12
21 21 19 11 11 10 10 12 10 8 9 7 7 4 3 4 6 2 4 5 11 9 9 13 15 16 17 17 18 19 20 20 24 25 23 21 20 20 20 19 18 17 14
19 20 19 16 10 9 11 10 11 10 12 12 7 10 5 4 7 3 2 4 6 10 11 8 12 18 21 19 21 21 24 22 26 25 26 23 22 21 20 20 18 18 17
18 19 18 16 12 9 10 12 14 11 10 9 13 11 5 3 8 4 5 6 2 6 9 10 8 13 17 20 20 23 27 27 24 27 27 26 24 23 21 20 19 18 18
9 15 17 15 14 11 11 10 12 13 12 12 11 10 12 8 6 4 3 12 12 6 7 7 8 9 17 17 19 25 26 25 23 25 28 28 26 24 23 22 21 20 19
9 11 13 12 10 12 12 11 12 12 11 12 13 10 10 10 3 1 4 7 5 3 3 7 8 10 16 18 19 25 27 26 24 24 28 26 25 26 26 25 25 23 21
10 13 12 14 14 15 12 12 9 9 11 10 13 13 10 9 7 5 1 8 3 2 1 4 3 6 12 17 21 30 23 29 29 26 26 23 23 26 26 25 24 24 24
11 13 14 15 13 12 13 13 9 12 12 12 11 13 11 9 10 10 8 7 7 5 9 5 3 5 9 16 20 23 20 28 29 28 26 24 22 22 24 26 25 25 24
13 14 14 14 15 14 13 13 11 11 11 9 9 13 13 8 10 11 11 10 10 9 8 3 5 4 6 8 19 21 19 26 32 30 29 29 28 24 22 23 25 25 25
14 14 14 14 14 16 14 12 12 13 14 12 11 10 15 14 11 12 13 12 11 9 8 4 4 4 5 7 7 14 18 17 20 30 27 24 24 21 19 17 17 16 22
13 14 14 14 14 15 14 13 14 12 14 14 13 11 14 12 16 11 10 17 13 11 8 11 7 3 5 12 10 9 6 12 14 21 23 22 20 19 18 19 19 18 18
13 13 15 13 14 14 15 16 15 14 13 14 14 14 13 13 15 13 10 13 11 10 9 5 4 3 2 7 7 5 6 4 12 15 19 20 21 22 21 20 22 23 22
12 13 13 13 14 15 15 15 16 15 14 13 12 14 14 13 14 15 13 13 11 10 8 9 6 6 4 3 7 8 7 7 8 9 14 17 20 21 20 20 22 23 24
12 12 13 13 13 13 11 14 14 15 15 14 13 13 14 19 19 21 13 13 14 12 10 10 7 4 5 4 11 7 7 5 5 3 4 5 5 10 14 20 19 23 24
11 12 12 12 13 10 22 25 21 14 15 15 13 13 12 19 20 22 31 28 19 17 15 10 8 11 11 9 11 8 8 4 4 6 7 5 9 6 10 14 20 21 19
11 12 12 10 12 13 24 25 25 14 14 14 13 14 14 12 17 17 23 26 21 21 22 17 17 13 12 12 12 12 11 10 7 4 6 4 4 5 7 11 14 15 15
11 11 11 11 12 12 25 26 25 15 13 15 16 15 16 17 17 15 18 18 19 17 18 15 17 13 12 12 14 13 13 8 4 3 6 4 3 4 3 9 13 13 11
10 10 10 12 12 14 24 25 21 12 12 15 15 16 17 19 24 24 19 19 14 15 15 19 15 15 15 18 13 8 8 9 3 3 5 3 4 3 2 3 8 9 8
10 9 11 11 17 14 23 24 19 9 11 10 12 15 24 24 28 27 19 18 16 17 16 14 10 12 17 16 20 15 11 11 5 2 5 4 3 4 1 2 1 5 6
Wind_Direction
342 331 329 321 230 184 188 188 188 193 204 212 215 185 198 217 212 134 150 160 162 170 188 175 169 168 170 166 161 149 139 136 137 137 135 133 126 127 127 126 127 117 118
343 341 330 319 297 198 204 194 195 196 196 213 223 183 195 203 181 140 146 151 148 166 184 179 173 172 174 166 161 157 151 151 151 151 146 145 138 133 134 135 134 131 126
345 341 327 329 327 241 223 247 224 191 192 208 211 187 190 182 179 143 147 150 149 160 196 190 176 176 176 172 171 165 161 161 161 161 158 152 144 144 144 147 149 147 139
349 340 331 322 323 327 236 230 228 223 207 197 190 188 185 169 165 158 144 145 142 160 204 195 176 178 179 173 167 173 176 166 166 164 163 159 151 150 153 155 160 156 152
344 341 330 324 329 316 261 236 228 206 199 205 183 174 183 165 161 168 157 140 144 159 186 186 178 178 181 174 171 174 173 173 172 172 170 166 159 157 160 161 157 165 158
343 337 334 333 334 334 328 230 232 204 192 220 185 175 183 168 167 159 160 152 149 154 169 172 180 180 178 178 177 178 178 178 177 176 178 175 171 169 162 173 169 173 170
337 335 337 334 332 326 327 312 251 232 208 225 132 185 165 160 163 173 162 150 151 157 148 157 170 167 182 184 183 186 183 179 180 183 182 181 182 175 171 176 176 177 177
335 332 334 335 335 331 324 341 315 258 260 229 168 173 157 128 189 180 174 159 162 162 159 155 165 150 168 177 196 190 186 188 184 188 188 189 185 182 179 177 181 183 184
330 336 329 332 335 332 327 328 320 310 240 209 212 169 163 174 156 190 192 175 162 164 170 168 164 172 185 189 198 198 202 201 197 190 189 190 188 187 184 184 185 183 190
330 327 325 328 332 329 320 325 321 318 305 226 203 214 227 159 169 163 221 198 170 168 168 173 177 180 186 189 195 202 205 203 203 200 189 192 189 192 191 189 192 190 192
326 325 323 328 327 325 323 325 317 330 314 300 221 200 195 237 171 144 183 193 206 177 177 173 175 183 189 188 185 192 202 204 205 204 195 192 194 194 196 194 196 197 197
320 320 323 324 320 324 322 321 318 315 316 302 272 195 199 195 190 160 129 191 194 187 180 178 177 180 185 187 182 187 195 203 202 206 201 196 196 197 199 199 200 201 202
316 315 319 316 320 316 313 311 311 313 302 309 298 253 197 203 140 213 143 171 176 185 168 194 191 186 182 179 182 184 192 199 199 199 203 203 202 200 199 203 206 203 205
306 308 307 314 311 310 309 309 303 299 294 290 301 301 222 191 186 168 263 142 137 130 142 175 177 181 175 177 182 188 190 201 200 198 204 210 206 210 207 211 215 210 207
302 303 306 308 305 305 306 305 302 304 307 295 299 304 302 184 191 181 188 161 149 170 195 210 171 201 182 176 181 182 184 200 200 201 204 212 216 207 213 215 218 219 219
300 300 300 300 302 302 301 300 299 293 293 296 295 305 296 262 182 192 190 190 184 181 193 157 202 182 177 174 176 178 185 193 202 207 211 216 220 217 215 217 222 225 225
296 297 297 297 298 299 297 294 295 296 294 298 297 294 308 297 225 196 196 197 195 188 183 185 175 191 161 164 161 171 179 182 202 208 209 209 218 224 223 220 221 226 230
291 294 293 293 294 294 293 292 294 293 290 288 285 292 284 296 303 218 208 189 192 189 182 164 177 158 183 191 178 172 173 185 191 206 200 197 206 206 214 216 217 218 217
285 284 289 290 290 290 291 289 288 288 282 286 289 283 275 282 273 242 204 197 192 191 192 163 154 149 132 173 168 173 176 180 200 206 209 213 215 222 223 227 226 227 230
280 280 280 285 286 286 286 286 286 285 276 273 271 283 291 278 296 295 209 196 193 196 183 194 166 163 162 155 171 178 185 201 209 193 198 204 208 213 213 222 226 226 230
281 279 280 279 280 281 282 282 280 283 283 277 273 269 273 271 271 276 287 206 190 188 189 198 171 155 165 154 180 183 190 191 200 174 178 194 176 193 214 221 223 229 232
281 281 278 275 280 280 282 282 284 280 279 276 272 272 261 263 264 268 272 261 197 187 191 189 186 193 186 183 186 181 178 162 206 203 182 210 178 205 218 209 220 226 233
278 279 277 272 276 275 279 282 281 279 277 277 273 273 272 264 258 255 275 255 202 193 193 191 197 199 185 181 175 184 187 194 208 173 160 184 166 203 198 214 217 226 231
277 278 278 273 272 274 280 284 284 280 272 271 269 263 264 259 251 246 252 246 207 203 201 195 204 192 205 181 182 189 189 189 68 128 163 174 161 199 162 203 211 211 212
278 276 274 277 274 275 281 286 285 275 269 267 266 265 259 255 247 240 245 259 207 207 207 204 191 168 172 173 173 158 174 171 161 184 195 131 169 127 148 149 175 189 175
277 279 279 275 274 282 285 288 285 272 265 268 271 272 265 251 245 234 232 235 221 205 200 204 197 177 176 176 173 187 180 189 158 120 205 125 139 141 131 320 85 129 122